Temp
12 13 14 14 15 15 16 16 16 17 17 18 18 18 18 18 19 19 20 20 21 21 21 21 21 21 21 21 21 22 22 22 22 20 21 23 24 23 23 23 23 23 23 23 24 24 23 23 23 23 24 23 22 23 23 23 24 24 23 22 22 22 23 24 24 23 24 26 25 23 22 23 24 21 20 19 18 17 18 18 18 18 18 18 17 17 16 16
13 13 14 15 15 15 16 16 17 17 17 18 18 18 18 18 19 19 20 20 21 21 21 21 21 22 22 22 21 22 22 22 21 20 22 24 24 23 23 23 23 23 23 23 24 23 24 23 22 22 25 24 22 23 23 23 24 24 23 22 22 23 24 24 25 24 24 26 25 23 22 23 24 21 21 20 18 17 18 18 18 18 18 18 17 16 16 16
13 14 14 15 15 16 16 17 17 17 17 18 18 19 18 18 19 19 20 20 21 21 22 22 22 22 22 22 22 22 22 22 22 22 24 24 24 23 23 23 23 23 23 23 23 23 23 23 21 23 24 24 23 23 24 24 23 24 23 23 24 24 25 25 25 25 25 26 24 22 22 22 22 21 21 20 18 17 18 18 18 18 18 18 17 17 16 16
14 14 15 15 15 16 17 17 17 17 18 18 18 19 19 19 19 20 20 20 21 21 22 22 22 22 22 22 22 22 22 23 24 24 24 24 24 23 23 23 23 23 23 23 23 23 23 22 21 22 24 24 23 22 24 24 24 23 23 24 24 23 25 26 25 25 24 24 24 23 22 22 21 22 21 19 19 19 18 18 19 18 18 18 18 17 17 17
14 15 15 15 16 16 17 17 18 18 18 18 19 19 19 19 20 20 20 21 21 21 22 22 22 22 22 23 22 22 22 23 24 24 25 24 24 24 24 23 23 24 23 23 23 23 23 21 21 22 23 24 24 24 25 24 24 24 24 25 24 23 25 26 25 25 23 23 24 22 22 22 22 22 21 20 21 21 19 19 19 19 19 18 18 17 17 17
15 15 15 15 16 16 17 17 18 18 18 19 19 19 19 19 20 20 21 21 21 21 21 22 22 22 22 23 22 22 23 23 23 25 25 25 24 24 24 24 24 24 23 23 23 22 23 21 22 23 24 24 24 24 25 23 24 25 25 25 24 24 25 26 26 25 23 24 24 22 23 22 22 21 20 20 21 20 19 19 19 19 19 18 18 17 17 17
15 15 15 16 16 17 17 17 18 18 19 19 19 20 20 20 20 20 21 21 21 21 21 21 22 22 22 23 22 21 22 23 24 25 25 25 25 24 25 24 24 24 23 23 22 22 23 22 23 23 24 24 24 24 24 23 23 24 25 25 24 24 24 26 27 25 24 24 23 22 23 22 22 21 19 20 19 17 18 19 19 19 19 18 18 17 17 17
15 15 16 16 16 17 17 18 18 19 19 19 20 20 20 20 20 20 21 21 21 21 21 22 22 21 22 22 22 22 23 24 25 25 26 25 25 25 25 24 24 24 23 23 22 22 22 23 24 23 24 25 23 24 24 23 24 24 24 25 25 25 24 24 25 24 23 23 22 23 22 21 21 21 19 19 18 17 18 18 19 19 18 18 18 18 17 17
15 15 16 16 17 17 17 18 18 19 19 20 20 20 20 20 20 20 21 21 21 21 21 22 22 21 21 21 21 23 24 25 26 26 26 26 25 25 24 24 24 24 23 22 22 22 23 24 24 24 25 24 23 24 24 24 24 24 25 25 24 25 25 23 23 23 23 22 22 23 21 20 20 20 20 19 17 17 18 18 18 18 18 17 18 18 17 17
15 16 16 17 17 17 18 18 19 19 20 20 20 20 21 21 21 21 21 21 22 22 22 22 22 21 21 21 21 23 25 26 26 26 26 26 25 25 25 24 24 23 23 22 22 22 23 24 23 23 24 24 23 24 24 24 25 25 24 24 24 24 24 23 22 22 22 21 22 23 20 20 19 20 21 19 17 18 17 18 18 17 18 17 17 17 17 17
15 16 17 17 17 18 18 18 19 20 20 21 21 21 21 21 21 22 21 22 22 22 22 22 22 22 21 21 22 24 26 26 26 26 26 26 25 25 25 25 24 24 23 22 22 23 24 23 22 23 24 24 24 24 24 24 25 25 24 25 24 23 23 22 22 22 22 22 21 22 20 20 20 20 21 18 18 18 17 17 17 17 17 17 17 17 17 17
16 16 17 17 18 18 18 19 19 20 21 21 21 22 22 22 22 22 22 22 22 22 22 22 22 22 20 20 22 24 26 25 25 26 26 26 25 25 25 25 25 24 24 23 23 24 24 23 23 24 25 24 25 25 25 24 24 24 24 26 25 23 22 22 21 21 23 22 20 22 21 20 22 20 19 18 18 18 17 17 17 17 17 17 17 17 17 17
16 16 17 18 18 19 19 19 20 21 21 22 22 22 23 23 23 23 23 23 23 22 22 22 22 21 21 22 24 25 25 25 25 26 26 26 25 26 25 25 25 25 24 24 24 25 25 24 24 24 24 25 25 25 25 24 24 24 24 25 25 24 23 22 21 21 22 21 21 23 22 21 21 19 17 18 18 18 17 17 17 17 17 17 17 17 17 17
16 16 17 18 19 19 19 20 21 22 22 22 23 23 23 24 24 24 24 23 23 23 22 22 22 21 22 24 25 25 25 25 26 26 26 26 26 26 26 26 26 25 25 25 25 25 25 25 24 24 24 24 25 24 25 24 23 24 24 23 23 23 23 23 22 21 22 21 20 22 22 22 22 18 17 18 18 18 17 18 18 18 17 17 17 17 16 16
16 16 17 18 19 19 20 20 21 22 22 23 23 23 24 24 24 24 24 23 23 23 22 22 22 22 22 24 26 25 26 26 26 26 26 26 26 26 26 26 26 26 25 25 25 25 25 25 24 25 25 24 24 25 25 25 24 23 23 23 22 21 23 24 22 21 23 21 20 22 22 22 21 18 18 18 18 18 17 17 18 18 17 17 17 17 16 16
16 17 17 18 19 19 20 20 21 22 22 23 23 23 24 24 24 23 23 23 23 22 22 22 21 22 23 24 25 26 26 26 26 26 26 26 26 26 26 26 26 26 26 26 25 24 25 25 24 23 24 25 24 25 25 24 24 23 22 22 22 22 22 24 23 22 22 21 20 21 22 22 20 18 18 18 18 18 17 17 17 18 17 17 17 17 17 16
16 17 17 18 19 19 20 21 21 22 23 23 24 23 23 24 23 23 23 22 22 22 21 21 21 21 23 25 25 26 25 25 26 26 26 26 26 26 26 25 25 25 26 26 25 25 25 25 23 22 23 23 22 24 23 22 22 22 22 22 21 22 22 23 24 23 22 21 21 20 21 22 20 18 18 18 18 18 17 18 17 18 17 17 17 17 17 16
16 17 18 18 19 20 20 21 21 22 23 23 24 23 23 23 22 22 22 22 21 21 21 21 21 21 23 25 25 24 24 24 25 25 26 26 26 26 25 25 24 24 25 25 25 25 25 24 23 24 24 23 23 24 23 21 22 22 22 22 21 22 22 22 23 23 22 22 21 20 21 21 19 17 18 18 18 18 17 18 17 17 17 17 17 16 17 17
17 17 18 19 19 20 20 21 21 22 22 23 23 23 22 22 22 22 22 21 22 22 23 22 22 22 23 24 23 23 24 24 25 25 26 26 26 25 25 24 24 24 25 25 25 24 24 24 23 24 24 24 24 24 23 23 23 23 22 22 22 22 22 22 23 22 21 21 21 20 21 20 18 18 18 18 18 18 18 18 17 17 17 16 16 17 17 17
17 17 18 19 20 20 20 21 21 21 22 23 23 22 22 21 21 22 20 20 21 22 22 22 22 22 23 23 23 23 25 25 25 25 26 26 26 25 24 24 24 25 24 24 24 23 23 24 24 23 25 25 24 23 23 22 22 22 22 22 22 22 22 23 23 22 22 22 21 20 21 20 18 18 18 18 18 18 17 17 17 16 16 16 16 17 17 17
17 18 18 19 20 20 20 21 21 21 21 22 22 21 19 19 20 20 18 19 19 19 21 22 21 22 23 23 22 23 24 24 24 25 26 26 26 25 25 24 25 25 23 22 22 23 23 23 24 25 25 24 22 21 22 22 21 22 22 23 22 21 22 23 23 22 21 23 21 18 20 19 18 18 18 18 18 17 17 17 17 17 17 17 17 17 17 17
17 18 18 19 20 20 21 21 21 21 21 22 21 19 17 17 18 18 17 19 19 18 20 20 19 20 21 21 22 23 23 23 25 25 25 25 25 25 25 24 25 24 23 22 23 23 23 23 25 25 22 22 22 22 23 23 23 22 22 22 22 21 22 23 24 21 20 23 21 18 19 19 17 18 18 18 18 18 18 17 17 17 17 17 17 17 17 18
16 17 18 19 20 20 21 21 21 21 21 21 20 18 17 18 18 18 17 19 19 19 20 20 20 21 21 22 23 22 23 23 24 26 25 25 25 25 25 24 24 24 23 23 24 23 22 24 24 21 20 23 23 22 23 23 23 23 22 22 22 22 22 22 23 22 20 21 20 18 19 18 18 19 19 19 19 18 19 18 18 17 17 17 17 17 17 18
16 17 18 19 20 21 21 20 21 20 20 19 19 18 18 19 19 18 18 19 19 20 20 20 21 22 23 24 24 24 24 23 24 25 25 25 25 24 25 25 24 24 23 23 23 23 23 24 22 21 22 24 24 22 23 24 22 22 22 22 22 23 22 22 23 22 21 20 20 20 21 20 19 18 18 19 19 19 19 19 18 18 18 17 17 17 17 18
16 17 17 18 19 21 21 20 20 20 19 19 19 19 19 20 19 19 19 19 19 20 20 21 21 23 24 25 24 24 25 24 25 25 24 25 25 24 24 24 23 25 24 22 23 24 24 22 21 23 24 23 24 23 23 24 23 22 23 23 24 24 24 23 23 22 22 21 20 20 21 21 20 18 18 19 19 19 19 19 19 18 18 18 18 18 18 18
15 16 17 18 18 20 21 20 19 19 19 19 19 20 20 20 20 19 19 19 20 22 22 22 22 24 25 24 24 24 24 25 25 24 24 25 26 25 25 23 22 24 24 22 23 23 23 22 22 24 24 23 24 24 22 23 22 22 23 24 23 24 24 24 23 22 21 21 20 20 21 21 20 20 19 19 19 19 19 19 18 18 18 18 18 18 18 18
15 15 16 17 17 19 21 20 19 19 20 20 20 20 20 21 20 19 20 19 20 22 23 23 23 24 25 24 24 25 23 24 25 24 24 25 25 25 25 24 23 23 23 22 22 22 23 23 23 23 24 24 24 24 23 22 23 22 23 23 23 23 24 24 23 22 21 21 20 20 20 20 21 21 18 18 19 19 19 19 19 18 18 18 18 18 18 18
14 15 15 16 17 17 18 18 17 18 20 20 19 20 21 21 20 20 20 20 21 23 23 23 24 25 25 23 24 25 24 24 25 25 24 25 25 25 25 24 24 24 23 22 23 21 22 25 25 24 24 23 24 25 23 22 24 23 22 22 21 22 22 22 23 22 20 20 21 20 20 20 21 20 17 17 19 19 19 19 19 19 18 18 18 18 18 18
14 15 15 16 17 16 16 16 16 17 19 19 19 20 21 20 20 20 20 20 22 23 24 24 24 24 24 23 24 25 24 24 25 25 24 25 25 25 25 24 24 24 22 22 23 23 22 23 24 24 24 24 25 24 22 23 24 22 21 21 21 20 20 20 21 21 20 20 21 20 20 20 20 20 18 17 18 19 19 19 19 19 19 18 18 18 18 18
13 14 14 15 16 16 16 16 18 19 19 19 20 20 20 20 20 21 20 20 22 23 23 24 24 24 24 24 24 24 24 24 25 25 25 25 25 24 23 22 23 24 23 22 23 23 22 21 22 24 24 24 24 22 20 22 22 21 21 22 22 21 20 20 20 20 20 20 20 20 19 20 20 20 19 18 19 20 20 20 19 19 18 18 18 18 18 18
13 14 14 14 15 15 15 17 19 19 18 19 20 20 20 20 20 20 20 21 21 22 23 23 23 23 24 24 24 23 23 24 24 25 25 24 24 24 23 22 23 23 22 22 23 22 22 22 22 23 23 22 24 22 20 20 20 21 23 22 22 21 21 20 20 20 20 20 20 18 18 19 20 21 21 20 20 20 20 21 21 20 19 18 18 18 18 18
13 14 14 15 15 15 16 18 20 19 18 18 18 19 21 20 19 20 21 21 21 22 23 23 23 23 23 23 23 23 23 24 24 24 25 24 24 24 24 23 24 22 21 21 22 22 23 24 22 22 22 23 24 23 21 20 20 22 23 21 21 20 20 20 20 19 20 20 19 18 18 20 20 21 22 22 22 20 19 19 20 20 19 18 18 18 18 18
14 15 16 16 16 17 18 19 19 18 18 18 18 20 21 20 20 20 20 21 21 21 22 22 22 22 22 23 24 23 23 23 23 23 23 23 23 23 23 22 23 23 21 20 20 21 23 23 23 23 23 23 24 23 22 22 21 22 22 21 21 20 19 20 19 18 19 19 18 17 18 20 20 21 22 23 23 20 18 18 18 18 19 18 18 18 18 18
15 15 16 17 17 18 19 19 19 19 18 18 19 20 20 20 20 19 20 21 20 21 21 21 21 21 22 23 23 22 23 23 23 23 23 22 22 23 23 21 21 23 22 20 20 20 21 21 23 24 23 22 23 24 23 23 22 21 21 21 21 20 20 20 20 19 20 19 18 18 19 20 20 21 21 20 20 18 17 17 17 18 18 18 18 18 18 18
16 16 16 17 18 20 20 19 19 18 17 18 20 20 19 20 20 19 20 21 20 21 21 21 21 22 22 22 22 22 22 23 22 22 23 22 22 23 23 23 21 22 22 20 20 20 20 21 23 23 21 22 24 22 22 23 22 19 19 21 21 21 21 19 17 18 19 19 19 19 19 20 20 21 20 19 19 20 20 19 18 19 18 18 18 18 18 18
16 16 17 18 19 20 20 20 19 17 17 18 20 19 20 20 20 20 20 21 20 21 21 21 21 22 21 22 22 21 22 22 22 22 22 21 21 22 23 23 22 22 23 21 20 20 19 21 22 22 21 22 23 22 22 23 22 19 19 21 20 19 21 19 16 16 16 18 19 18 19 20 20 21 21 20 21 22 22 21 20 20 18 18 18 18 18 18
16 16 16 17 19 20 20 20 19 17 17 19 20 19 20 20 20 20 20 20 20 20 21 21 21 21 21 21 22 21 22 22 21 21 21 21 21 22 22 23 22 22 23 23 21 21 20 21 22 22 23 22 20 21 22 21 21 21 21 21 19 18 20 20 18 17 16 18 19 17 18 20 19 21 22 22 22 23 23 22 20 19 18 18 18 18 17 17
13 14 15 17 20 20 19 19 18 17 17 19 19 19 19 19 20 19 20 20 20 20 20 20 20 20 20 20 21 21 21 21 21 21 21 21 21 21 22 23 22 22 22 22 22 21 20 21 22 21 22 22 20 21 22 20 20 21 21 20 19 20 20 19 19 19 18 18 18 17 17 17 18 20 22 22 23 24 24 22 21 20 19 19 19 18 17 17
10 13 17 19 20 19 19 19 18 17 18 18 19 19 18 19 19 19 20 20 20 20 20 20 20 20 20 20 21 21 21 21 21 21 21 21 21 21 22 23 23 22 21 22 22 21 20 21 21 20 20 21 21 22 22 21 20 20 21 20 19 20 20 19 19 19 19 18 17 18 18 18 19 20 22 23 23 23 24 23 23 23 21 20 19 18 17 17
10 15 19 18 18 18 18 18 17 18 18 18 18 19 18 18 19 20 20 20 20 20 20 19 19 19 20 20 20 20 20 20 21 21 20 20 21 22 22 22 23 22 21 21 22 21 20 20 20 21 20 20 21 22 22 23 22 20 21 20 19 19 18 19 18 18 19 19 17 18 18 20 20 19 22 24 24 24 24 24 24 24 23 20 17 17 18 17
11 16 18 18 18 17 17 18 17 17 18 17 17 17 17 18 20 20 20 20 20 20 20 19 19 20 20 20 20 20 20 20 21 21 21 21 21 22 22 22 23 23 22 22 22 21 21 20 20 21 21 21 22 21 20 21 22 21 22 21 20 20 19 19 19 17 17 18 18 18 18 20 21 20 21 24 24 24 22 22 23 24 24 22 18 17 17 17
12 16 18 17 17 17 17 18 16 15 17 18 17 18 18 18 19 19 19 19 19 20 19 19 19 19 19 20 20 20 20 20 20 20 21 21 21 22 22 21 22 23 23 22 21 20 20 20 20 20 20 21 22 19 16 18 19 20 21 20 19 20 20 20 20 18 17 17 17 17 17 20 22 19 20 22 21 20 18 17 21 22 23 23 21 18 17 17
14 16 17 17 16 16 17 17 15 15 17 17 17 18 18 18 18 19 19 19 19 19 19 19 20 19 20 20 19 19 20 20 20 20 21 21 21 22 22 21 22 22 22 22 21 19 19 20 20 20 21 21 20 18 16 17 18 20 20 18 18 20 20 20 19 18 18 18 17 17 17 20 21 18 17 18 17 17 17 17 19 21 20 20 21 21 18 16
14 15 16 16 16 16 16 16 16 16 17 17 17 18 18 18 18 18 19 19 19 19 19 20 20 20 20 19 19 20 20 20 20 20 20 20 21 21 21 22 23 22 22 22 22 21 20 20 20 20 20 20 20 20 19 19 20 21 20 18 18 19 19 18 18 17 18 18 18 19 18 20 21 19 18 19 19 20 21 18 17 19 21 20 20 20 18 17
13 14 15 15 15 15 15 16 17 17 16 16 17 17 17 18 18 18 18 19 20 19 19 20 20 20 19 18 19 20 19 20 20 20 19 19 20 20 20 21 22 22 22 22 22 22 21 20 20 20 19 19 19 20 20 20 20 19 19 19 19 19 19 19 19 18 19 18 17 18 19 20 21 21 21 22 21 22 23 21 18 17 19 20 19 19 19 18
13 15 15 15 15 15 15 15 16 17 16 16 16 17 17 18 18 18 18 19 19 19 19 19 19 19 19 18 19 19 19 19 19 19 19 19 21 21 20 20 21 21 22 21 21 21 20 19 20 20 20 19 20 20 19 19 19 20 20 20 19 18 18 19 19 19 19 18 17 18 20 20 20 22 22 22 22 22 23 23 21 19 19 19 19 19 18 18
12 15 16 15 15 15 14 14 15 16 16 16 16 17 17 17 18 18 18 18 19 18 18 18 18 18 18 18 18 18 18 18 18 19 19 19 20 20 19 19 20 20 20 20 19 20 20 19 19 19 20 19 20 20 19 18 19 20 20 20 19 18 18 19 19 19 19 18 18 19 19 19 20 21 22 22 22 22 22 23 23 22 20 20 20 19 18 17
11 14 15 15 15 15 14 14 15 15 15 16 16 16 17 17 17 18 18 18 18 18 18 18 17 16 16 17 17 18 18 18 18 18 19 18 19 20 20 20 19 19 20 20 19 19 20 19 18 18 19 19 19 18 17 17 18 18 18 19 19 18 18 19 19 18 18 18 19 19 20 19 19 20 21 21 21 21 22 22 21 20 19 19 19 19 19 18
12 13 13 13 14 15 14 14 15 15 15 16 16 16 17 17 17 17 18 18 18 18 17 17 17 16 16 16 17 17 18 18 18 18 19 19 18 19 20 20 19 19 20 20 19 18 19 19 17 17 18 19 19 18 16 16 17 18 18 18 18 18 19 18 18 17 17 18 18 18 18 18 18 20 20 20 20 19 19 19 18 19 19 19 19 19 19 18
11 12 13 13 14 14 14 14 15 14 14 15 16 16 16 17 17 17 17 17 18 17 16 17 17 16 16 16 17 17 17 17 18 18 18 18 18 18 19 19 19 19 19 19 18 18 19 18 16 17 18 18 19 18 17 16 17 17 17 17 17 18 18 17 17 17 17 17 18 17 17 16 17 18 18 18 18 18 17 18 18 18 19 19 19 18 18 18
10 10 10 12 14 14 14 14 14 14 14 14 15 15 16 16 17 17 17 17 17 17 16 17 17 16 16 16 16 17 16 16 17 17 17 18 18 18 18 18 18 18 19 19 18 18 19 17 16 17 17 17 18 19 18 18 16 15 16 16 17 18 18 17 18 18 18 18 19 18 17 17 18 18 17 17 17 17 17 17 18 18 17 18 18 18 18 17
9 10 10 11 14 14 14 14 14 14 14 14 14 15 16 16 16 17 17 16 16 17 16 16 16 16 17 17 17 16 16 15 16 17 17 18 18 18 18 17 18 18 18 18 17 17 18 18 17 17 17 17 17 17 17 17 16 15 16 17 18 18 17 18 18 18 18 18 18 18 18 18 19 18 18 18 18 18 18 18 18 18 18 17 17 17 17 17
Height
808 806 805 803 802 800 799 798 797 795 795 794 793 792 790 789 788 787 786 786 785 785 784 784 783 782 781 780 779 778 777 776 776 776 776 775 774 775 775 775 775 776 776 776 775 776 776 776 775 775 775 777 779 780 779 780 780 783 793 802 806 807 801 794 794 793 789 784 782 783 784 785 787 790 790 791 796 799 799 798 796 795 794 794 795 796 798 800
808 806 805 803 802 800 799 797 796 795 794 793 793 792 790 789 788 787 786 786 785 785 785 784 783 782 781 780 778 777 776 775 775 775 775 774 774 775 775 775 776 776 776 776 776 775 776 777 776 775 777 780 782 781 781 781 781 786 795 801 802 801 792 786 785 784 784 781 779 782 784 784 785 789 789 794 803 802 801 801 798 798 797 795 796 797 799 800
807 806 805 803 801 800 799 797 796 795 794 793 792 791 790 789 788 787 786 786 785 785 784 783 783 782 781 780 778 777 775 774 775 776 774 774 775 775 775 775 776 776 776 776 776 776 776 777 776 776 779 782 784 783 783 783 783 786 793 798 796 792 787 783 782 779 778 777 780 784 784 786 787 787 788 795 805 805 804 802 800 800 799 797 797 798 799 801
807 806 804 803 801 800 799 797 796 795 794 793 792 791 790 789 788 787 786 786 785 785 784 783 783 781 781 779 778 777 774 776 778 776 774 775 775 775 775 776 776 776 776 776 776 776 776 776 776 777 781 784 786 785 785 784 784 787 790 792 789 789 787 781 779 776 776 777 780 783 785 789 788 787 790 797 803 804 803 798 795 796 795 796 797 797 799 801
807 806 804 803 801 800 799 797 796 795 794 793 792 791 790 788 787 787 786 786 785 785 783 783 782 781 781 778 778 776 776 785 782 774 775 775 775 775 775 775 776 776 776 776 776 777 776 777 778 780 783 785 786 786 786 783 783 786 786 785 785 788 787 780 777 776 778 779 779 783 786 787 787 788 791 795 797 796 796 794 792 793 792 794 796 798 800 801
807 805 804 803 801 800 799 797 796 795 794 793 792 791 790 788 787 786 786 785 785 785 783 783 782 781 780 778 778 775 780 789 781 774 776 775 775 775 775 776 776 776 776 776 777 777 778 779 780 783 785 786 788 786 785 783 782 786 784 782 783 784 783 779 775 774 777 779 781 783 783 784 788 791 792 793 794 792 790 790 792 793 793 794 797 799 800 802
806 805 804 802 801 800 798 797 796 794 793 792 792 791 790 788 787 786 785 785 785 785 784 783 782 781 780 778 777 777 781 783 776 775 777 775 776 775 775 776 775 776 776 776 777 778 779 781 782 784 786 786 787 785 784 784 782 786 786 781 781 780 779 776 773 774 776 778 780 780 782 785 788 791 794 793 793 793 789 790 792 794 795 797 799 801 803 804
806 805 803 802 800 799 798 797 795 794 793 792 791 790 790 788 787 786 785 785 785 784 784 783 783 781 780 778 778 780 782 778 775 776 776 776 776 775 776 776 775 776 776 777 777 778 780 781 782 783 786 786 786 785 783 784 785 786 785 780 778 778 777 775 775 776 777 778 778 780 785 789 788 791 794 795 795 794 791 791 794 796 798 799 801 803 805 806
806 804 803 801 800 799 797 796 794 793 792 791 790 789 789 788 787 786 785 785 784 784 783 783 783 781 781 779 779 784 782 775 774 775 775 776 775 775 776 775 776 776 776 777 776 778 779 781 781 781 784 785 786 785 782 786 786 783 781 779 778 777 776 776 778 778 778 779 778 782 791 793 791 792 795 797 797 796 794 794 797 799 800 802 803 805 806 807
806 804 802 801 799 798 796 795 794 792 791 790 789 788 787 787 786 785 784 784 783 783 783 783 782 781 781 779 782 786 779 773 775 775 775 775 775 775 776 775 776 775 776 776 776 777 778 778 779 778 780 784 785 784 783 785 781 778 779 778 779 778 777 777 779 779 780 781 779 784 795 796 794 796 798 798 798 797 798 799 800 802 803 804 805 806 807 808
805 803 802 800 799 797 795 794 793 791 791 789 788 787 786 785 784 784 783 783 783 782 782 782 781 780 780 780 784 785 775 773 775 774 775 775 775 775 775 775 775 775 776 776 776 775 776 776 777 778 781 783 783 783 782 779 776 776 777 777 780 780 780 780 781 780 780 784 784 785 796 798 795 798 800 799 798 799 801 802 803 804 805 806 806 807 807 808
805 803 801 800 798 796 794 793 791 790 789 788 787 785 784 783 783 783 782 782 782 782 782 781 781 780 779 781 783 779 772 773 774 773 775 774 775 775 774 775 775 775 776 775 775 774 775 775 775 779 782 781 783 784 779 775 775 776 776 778 780 781 784 784 784 783 781 786 786 785 800 804 798 800 801 798 798 800 803 804 805 805 805 806 807 807 808 808
805 803 801 799 797 795 794 792 790 790 788 787 786 784 783 781 781 781 781 782 781 781 781 780 780 778 780 781 777 773 771 772 772 773 773 773 774 774 774 774 774 775 775 774 773 773 774 774 775 778 778 779 783 781 776 775 776 777 779 780 782 785 788 785 785 786 785 789 785 786 805 807 799 803 801 798 798 800 804 805 805 805 805 806 807 807 807 807
804 803 801 799 797 795 793 791 790 789 787 786 784 783 782 780 780 780 780 781 780 781 780 780 780 778 780 779 772 771 772 771 771 772 772 773 773 773 773 774 774 774 774 773 772 772 773 773 774 775 776 779 779 776 776 780 780 781 782 785 792 793 790 785 786 789 789 792 787 790 803 800 798 805 801 797 798 800 804 804 804 805 805 806 806 807 807 807
804 802 801 799 797 794 793 791 789 788 786 785 784 783 781 780 780 779 779 780 779 780 780 780 779 778 782 778 770 771 771 769 770 770 771 772 772 772 772 772 774 773 773 772 771 772 772 772 774 778 778 776 777 780 783 783 783 789 790 792 800 799 793 787 786 788 788 791 790 793 801 798 798 803 799 798 798 800 803 804 805 805 806 806 806 806 806 807
804 802 800 799 797 794 793 790 788 787 786 784 783 782 781 780 779 779 779 779 779 780 779 780 779 779 784 779 770 770 770 770 770 770 770 771 771 771 771 771 772 772 773 772 771 771 771 773 777 781 780 778 783 786 787 789 789 794 796 796 799 798 797 790 785 786 786 790 795 796 800 800 800 801 799 798 798 801 804 805 806 806 806 806 806 806 805 806
803 802 800 798 796 795 793 790 789 787 785 784 783 781 780 779 778 778 779 778 779 778 778 779 778 780 781 775 771 773 771 770 770 769 770 769 770 770 771 772 771 771 771 770 770 771 772 776 781 784 784 787 790 788 793 801 798 796 798 799 800 800 799 793 786 786 787 791 797 798 800 799 801 802 800 799 799 803 805 806 806 805 805 805 804 805 804 806
803 801 800 798 796 795 793 791 789 786 785 784 782 781 780 779 779 779 778 778 778 778 780 779 779 786 785 774 774 775 771 770 769 769 769 769 769 770 771 772 772 772 774 774 773 774 776 780 783 786 788 790 790 789 798 806 800 798 800 801 802 801 801 799 792 788 788 792 796 800 801 801 803 803 801 800 800 803 805 805 805 805 805 805 804 804 803 804
802 801 799 798 796 794 793 791 789 787 786 784 783 781 779 779 779 778 778 778 779 780 783 781 780 788 787 776 773 772 770 770 769 768 768 768 768 769 770 771 773 775 779 782 780 779 781 783 787 791 791 789 789 791 795 798 796 797 801 801 800 800 798 796 793 788 788 794 799 801 801 802 806 805 802 801 800 803 805 804 805 806 805 805 803 802 801 802
801 800 798 797 796 794 793 791 789 788 786 785 783 780 782 785 784 783 780 778 780 780 780 780 779 781 779 773 771 771 770 769 768 768 768 768 768 769 771 773 776 778 783 787 785 783 784 790 794 793 790 787 790 793 793 795 798 798 800 798 798 801 796 790 789 788 786 792 801 803 801 804 807 806 804 802 803 805 806 806 806 805 805 804 803 801 799 799
801 799 798 797 795 794 792 791 790 789 787 786 783 784 790 794 794 794 789 781 777 777 777 776 776 776 773 770 770 770 772 772 769 767 768 768 768 772 776 776 781 784 786 788 787 784 786 793 792 786 786 788 791 794 792 794 798 798 798 796 798 802 797 789 789 791 788 790 803 807 804 806 809 807 805 803 805 806 805 806 805 803 803 802 801 800 798 797
801 799 797 796 795 794 792 791 790 789 789 787 785 788 793 795 796 796 795 789 779 774 775 774 774 775 770 768 769 771 776 777 772 767 766 768 769 774 779 780 784 788 787 787 788 790 793 793 785 783 789 791 792 793 790 792 795 797 799 798 799 801 798 791 788 794 793 789 802 812 809 810 809 805 804 803 805 805 802 803 802 801 801 800 799 799 798 797
800 798 797 795 794 793 792 791 790 790 789 788 789 791 793 794 793 792 794 795 784 774 773 774 774 773 771 769 768 770 776 778 776 769 765 768 771 775 778 782 786 787 788 788 789 795 797 790 785 788 790 787 790 795 793 791 795 798 800 799 799 799 800 795 790 795 797 793 801 809 810 811 808 805 804 802 801 801 799 799 798 799 798 797 797 796 797 797
799 798 797 795 794 793 791 791 790 790 790 790 791 791 793 792 792 791 792 794 790 777 771 770 770 770 769 766 765 769 774 775 775 770 764 767 773 775 777 781 786 787 789 790 790 793 793 787 786 789 788 785 790 797 793 791 798 801 798 798 797 795 797 797 794 794 796 798 800 802 805 807 807 810 807 801 800 800 798 798 797 796 796 796 796 794 794 794
799 798 796 794 793 792 791 790 789 790 790 790 791 791 792 791 790 790 790 797 796 780 770 768 768 767 763 763 765 767 771 772 769 766 763 765 771 775 778 780 784 787 789 791 791 790 788 786 785 785 787 788 790 794 793 791 798 802 797 793 792 790 792 794 796 796 799 803 803 804 809 809 807 811 809 802 802 800 798 798 796 795 795 795 795 793 792 791
798 797 796 795 793 791 790 789 789 790 789 789 790 790 791 790 789 788 792 805 800 780 772 771 770 766 762 765 765 765 775 774 764 762 763 764 765 770 778 782 784 785 786 788 790 788 787 786 785 784 787 790 790 792 794 793 799 803 795 789 791 792 791 792 794 798 804 807 806 806 812 812 807 805 805 804 803 802 799 797 795 795 795 794 793 791 790 789
798 797 796 795 793 791 790 790 791 790 789 789 789 789 789 788 789 787 793 810 802 778 774 773 770 766 763 765 763 769 783 777 763 762 762 763 765 767 777 784 784 784 783 787 792 790 786 784 787 787 787 791 792 791 792 792 796 798 790 788 793 793 791 792 792 796 804 806 806 807 810 815 808 802 807 808 804 803 801 797 794 792 793 792 791 790 789 787
798 797 795 795 794 793 792 792 792 789 789 789 787 789 788 786 788 787 798 814 798 774 772 771 765 763 762 764 763 769 776 771 770 769 760 762 765 768 777 782 781 783 782 788 795 792 786 783 784 785 787 792 790 785 787 789 791 792 789 792 797 797 796 796 795 799 807 809 807 808 811 817 811 804 810 811 807 806 801 796 792 788 789 789 789 788 786 786
797 796 795 794 794 793 793 793 791 789 788 787 787 788 786 786 786 790 806 813 789 771 771 768 765 765 765 767 768 769 769 769 774 769 761 764 765 767 776 779 779 782 783 787 791 788 785 782 781 782 786 788 783 782 785 785 787 790 792 795 798 802 805 805 803 801 808 813 809 808 811 816 811 803 809 814 810 805 797 791 789 786 786 786 786 785 784 784
796 795 795 793 793 793 792 791 789 788 788 787 787 786 785 787 790 803 817 807 785 776 772 768 769 770 769 771 773 773 772 771 770 767 766 768 767 768 774 776 777 781 785 788 787 785 783 782 781 780 782 782 780 787 791 787 787 789 792 795 796 801 803 807 809 805 811 817 811 812 815 816 813 803 804 808 800 793 790 787 786 785 785 784 782 782 781 782
794 795 794 792 792 792 791 790 788 788 788 786 786 785 786 791 800 815 816 794 783 781 773 772 774 771 772 776 777 775 774 773 770 770 772 772 773 774 777 780 781 785 791 790 787 787 785 782 782 778 777 780 780 786 792 792 792 791 792 796 800 806 807 809 812 811 819 822 815 818 819 817 817 803 793 794 788 786 788 784 781 781 782 781 779 778 778 780
793 793 793 791 791 790 790 789 787 787 787 786 786 785 790 802 810 811 801 785 786 785 777 778 778 774 775 777 777 776 776 775 772 772 774 776 778 777 779 783 783 791 801 799 793 790 783 779 782 779 776 777 780 787 793 794 794 793 794 799 808 820 823 821 822 825 828 823 818 822 819 815 813 797 784 784 781 782 786 783 779 779 779 779 778 778 778 780
792 791 791 790 789 788 787 787 786 787 786 786 787 786 795 811 811 803 795 788 788 784 778 779 778 778 780 778 777 776 776 777 774 773 775 779 782 780 780 783 781 787 798 804 802 796 788 782 780 779 777 775 778 787 794 795 795 794 793 799 811 826 835 835 837 840 834 822 820 825 820 815 809 793 783 781 777 780 784 783 782 780 780 778 778 779 779 779
790 789 788 787 786 785 784 785 785 785 785 786 788 792 804 813 805 797 796 791 786 782 779 780 779 779 779 778 778 776 777 778 775 776 778 781 786 784 781 783 783 783 790 802 804 801 802 796 781 776 778 777 776 780 784 787 793 797 797 799 805 814 823 829 831 830 826 821 823 824 817 812 804 790 783 782 781 782 783 782 782 780 779 778 777 778 778 777
787 787 786 784 783 783 783 784 783 784 785 786 790 799 807 806 799 796 794 788 786 784 780 781 780 780 780 779 778 776 775 778 778 778 780 782 785 783 779 780 782 783 788 799 803 804 810 800 780 775 778 776 776 778 780 783 793 804 803 799 802 802 805 823 834 830 826 826 824 822 815 807 798 786 782 784 781 778 777 778 779 778 777 778 777 776 776 776
785 784 783 781 780 780 781 782 782 783 784 787 795 802 799 792 790 792 787 782 785 785 783 783 781 782 785 781 780 779 775 776 780 780 782 785 785 782 779 776 776 778 780 790 797 802 809 798 779 778 780 775 776 777 778 781 790 803 804 798 803 802 799 817 838 839 837 831 825 825 815 803 798 788 781 782 778 773 773 774 775 775 776 778 776 774 775 775
784 782 781 779 778 779 779 780 781 782 784 788 795 796 791 784 781 783 780 779 782 782 786 790 785 784 787 784 782 781 777 777 782 782 783 787 783 779 778 773 772 773 771 778 787 791 798 795 782 779 780 776 777 777 777 780 785 795 799 796 800 805 802 810 826 836 842 836 827 826 819 809 809 799 783 780 778 773 771 772 775 776 776 776 774 773 774 773
783 781 778 775 775 776 777 779 780 781 784 790 793 791 789 783 778 778 777 777 779 780 787 793 787 784 789 788 783 782 780 780 784 784 784 787 782 776 775 772 771 773 769 772 781 785 792 795 787 783 783 779 777 778 782 785 784 785 788 791 796 804 807 813 822 828 836 838 830 826 826 821 814 801 786 780 778 772 769 771 773 774 774 773 771 771 772 772
784 782 777 772 771 773 775 777 780 782 786 792 793 788 786 782 777 776 775 775 778 781 786 789 786 786 788 787 784 782 782 782 784 786 785 787 784 775 772 771 771 772 770 770 777 783 789 795 792 786 784 782 779 782 788 790 789 787 787 792 797 800 805 810 817 818 821 833 834 826 824 817 804 794 784 777 775 772 770 769 768 767 769 770 770 769 770 771
784 782 776 771 770 772 774 776 780 784 787 791 791 786 783 781 776 773 772 773 775 778 783 786 787 787 785 785 785 783 783 784 783 784 785 784 782 774 769 769 769 770 770 770 775 780 786 795 795 787 784 786 784 784 784 782 787 791 793 798 801 803 808 809 813 816 815 823 832 829 822 806 791 787 780 772 771 770 768 768 765 763 764 767 770 769 768 769
785 783 776 770 771 772 775 778 782 786 787 789 789 786 783 779 775 773 772 772 773 773 776 781 783 784 782 783 784 781 782 784 781 782 783 781 780 777 770 767 767 768 770 772 775 778 784 791 794 790 788 787 781 781 783 781 782 785 786 792 795 798 805 809 815 821 816 816 822 825 820 798 780 780 776 768 768 767 769 771 766 762 761 763 767 767 766 766
787 784 776 772 773 773 775 780 785 788 786 784 783 781 779 777 776 776 773 773 774 772 774 777 778 781 781 779 780 779 780 782 782 782 780 778 777 775 769 766 766 766 768 774 777 777 781 787 791 791 788 784 780 784 791 788 785 785 785 790 793 793 796 803 811 815 815 819 820 821 821 796 773 776 775 769 770 773 777 778 770 765 763 761 762 763 764 764
785 781 774 772 774 773 776 782 786 787 783 780 778 777 776 776 777 776 774 774 775 774 775 776 775 776 776 776 778 779 778 779 780 779 777 777 774 768 766 765 765 766 769 774 778 778 780 787 792 792 787 782 780 784 789 788 786 786 787 792 794 791 790 795 802 805 809 815 815 818 820 796 772 776 779 775 777 777 777 777 773 768 765 763 761 759 761 762
783 780 775 774 774 775 779 782 782 782 780 778 778 776 775 775 775 775 775 774 773 774 775 773 772 772 772 773 774 775 776 778 778 777 776 777 771 765 765 764 763 767 769 771 774 775 781 788 794 798 799 795 790 788 788 786 784 784 787 792 792 790 793 798 803 807 808 808 806 809 810 791 772 774 775 771 773 771 768 771 773 768 763 762 761 759 759 760
784 780 776 774 774 775 779 778 776 778 779 779 779 777 776 775 772 771 773 772 770 772 774 771 769 769 771 774 774 773 773 774 775 776 777 777 771 766 766 764 763 765 765 766 767 769 779 788 790 797 807 809 805 798 791 786 786 787 788 790 789 790 793 794 799 806 807 807 807 803 796 785 774 770 768 766 767 765 761 764 769 768 763 760 761 760 758 758
783 779 776 776 775 775 777 776 775 776 777 779 781 778 777 775 771 768 769 771 770 771 773 771 769 770 773 775 775 776 775 774 776 777 777 776 770 766 767 766 765 765 764 766 767 769 781 788 786 788 795 799 796 790 787 788 788 787 786 786 788 791 791 791 797 801 799 803 806 796 787 784 778 771 768 765 764 763 760 759 761 762 761 759 759 758 757 757
785 778 774 775 776 776 777 776 776 776 775 777 778 777 776 775 772 769 769 770 770 770 774 775 774 777 779 778 778 779 778 778 779 777 776 776 771 768 768 766 766 765 764 768 769 773 782 787 786 786 785 786 786 782 785 791 788 785 786 786 788 792 793 792 792 792 792 799 801 790 784 786 781 772 768 764 762 762 760 757 756 756 756 756 755 755 756 756
785 777 771 771 773 775 776 775 775 776 776 775 775 775 774 774 773 771 770 769 769 770 774 778 780 782 782 780 780 781 780 780 781 779 777 777 774 771 769 767 768 766 765 769 771 773 780 785 788 789 785 783 785 785 789 792 788 787 788 786 787 791 792 789 787 788 791 792 789 782 780 780 776 771 766 763 761 759 756 755 755 755 755 754 754 753 754 753
782 778 773 770 771 771 772 770 770 773 774 773 774 773 772 772 772 772 770 770 772 772 774 778 782 783 782 780 779 781 781 781 782 780 776 776 777 776 774 772 771 769 767 769 772 774 778 784 790 792 788 784 784 787 792 792 789 787 787 786 787 787 785 785 787 789 789 785 782 782 781 778 774 768 762 759 758 759 758 758 757 755 752 751 752 751 751 751
783 779 775 772 770 770 770 770 769 772 774 773 773 772 770 769 771 771 770 770 774 776 777 778 780 781 782 781 780 781 781 780 780 780 777 777 779 778 776 774 772 772 771 771 775 776 777 786 792 791 790 788 783 783 788 790 790 789 787 787 788 785 785 789 789 789 789 785 780 780 783 780 773 766 761 759 759 760 761 759 755 753 751 749 749 749 749 748
783 781 779 776 771 768 770 770 770 772 773 773 773 771 769 768 768 769 770 770 771 775 778 778 779 780 780 779 779 780 780 780 779 777 775 776 777 775 775 774 773 774 774 774 777 776 777 787 792 790 793 792 784 782 783 783 788 793 793 790 786 782 784 783 780 779 779 777 774 777 779 773 763 761 761 760 760 760 759 756 753 751 749 749 748 747 746 746
782 781 780 778 772 768 769 769 770 772 771 769 770 768 767 767 767 767 770 772 772 773 776 779 779 779 779 778 778 778 778 778 776 774 772 772 772 771 772 773 772 773 774 776 779 778 778 782 787 790 794 793 788 788 786 785 791 794 789 783 779 779 780 777 774 773 772 772 773 773 768 760 756 758 760 757 756 756 754 751 750 747 745 745 746 744 743 742
Wind_Speed
20 20 19 18 18 16 15 13 13 13 13 13 13 14 15 15 13 11 9 9 8 7 8 9 11 13 14 16 17 16 15 14 11 6 4 5 4 2 4 5 3 4 4 4 5 4 3 5 7 8 4 2 3 1 1 1 1 3 4 3 2 2 3 4 6 6 3 4 5 4 2 4 4 2 3 4 8 6 5 5 3 3 4 7 13 17 16 16
20 19 18 18 18 16 15 13 13 13 12 12 13 14 14 14 13 10 9 8 8 7 9 10 12 14 15 16 17 17 15 13 8 4 3 4 3 1 2 2 2 2 3 5 7 6 5 4 6 6 5 2 3 2 2 0 1 3 3 2 2 5 4 5 6 6 4 5 4 3 4 3 4 4 3 3 3 3 5 4 4 7 9 11 14 16 16 17
20 19 18 18 18 17 15 14 13 13 12 12 12 13 14 14 13 10 9 8 7 8 10 11 13 15 16 17 17 16 14 9 4 3 4 4 3 1 1 2 3 3 3 4 6 7 5 1 3 5 5 2 2 2 2 1 1 2 3 0 4 6 4 4 6 8 7 5 5 4 3 3 3 3 3 4 5 2 4 5 6 9 11 11 12 14 16 17
19 19 19 19 18 17 16 15 14 13 13 12 12 12 13 13 12 10 9 8 8 8 9 11 13 15 16 16 15 14 12 7 3 4 6 4 3 3 3 3 3 3 2 4 5 6 4 4 5 5 4 2 3 2 1 2 1 1 3 3 5 4 2 6 8 9 6 4 6 5 5 4 3 3 4 7 6 3 6 6 4 10 14 13 12 14 15 16
19 19 19 19 18 18 17 15 14 14 13 13 12 12 12 12 12 10 8 8 8 8 9 10 13 15 16 15 13 11 8 6 1 4 5 4 5 5 4 4 2 1 1 3 4 5 5 6 6 5 4 1 2 3 1 3 2 1 3 5 5 5 2 6 9 7 2 3 5 8 6 5 3 3 4 8 5 4 5 6 5 8 13 14 14 14 14 14
19 19 19 19 19 18 18 16 14 13 13 13 12 12 12 11 11 9 8 8 8 8 8 9 11 13 15 14 11 8 6 2 4 2 2 3 4 4 4 2 1 0 1 2 3 4 4 5 5 3 3 1 0 1 3 3 1 2 4 3 3 5 4 5 7 5 4 5 5 7 5 5 6 3 2 6 4 5 3 6 6 7 10 13 14 13 13 11
19 19 19 19 19 18 18 17 15 13 12 12 12 12 12 11 10 9 7 7 7 7 8 9 11 12 14 12 8 5 5 1 4 0 0 1 1 2 2 1 1 2 3 2 2 2 3 4 2 3 4 2 2 3 3 2 1 2 3 5 4 6 7 7 6 4 7 8 6 6 5 6 7 4 2 1 3 5 2 7 7 7 10 11 11 10 9 9
19 20 20 19 19 19 18 17 15 13 12 11 11 12 12 12 11 9 7 6 6 6 8 9 10 12 13 8 4 5 2 2 3 1 2 2 4 5 3 3 4 5 4 2 1 2 2 3 2 3 3 1 2 1 2 3 3 3 4 5 3 3 5 5 3 4 6 6 5 7 5 3 5 5 3 1 3 2 4 9 7 7 8 7 9 8 6 6
20 20 20 20 20 20 19 17 15 13 12 11 11 11 11 11 11 9 6 5 5 5 8 9 10 12 12 5 4 4 3 4 5 2 2 4 7 7 6 5 5 5 3 3 2 2 1 2 2 2 2 1 1 2 2 2 2 5 5 4 2 3 4 0 4 6 6 4 7 9 5 3 3 4 2 2 2 3 6 10 9 7 7 8 8 7 6 5
21 21 21 21 21 21 20 18 15 13 12 12 12 12 11 10 10 9 7 5 4 5 8 8 10 12 9 3 6 3 3 6 5 3 3 5 8 8 7 7 7 6 4 2 3 4 2 2 2 2 3 1 1 3 1 3 2 5 5 4 3 3 4 3 4 6 5 3 5 9 5 2 3 3 1 2 4 6 8 10 10 9 9 9 8 6 7 6
22 22 22 22 22 22 22 19 17 14 13 12 12 12 11 9 9 9 7 5 5 5 7 8 10 11 6 3 5 2 3 6 4 4 5 6 8 9 8 8 8 6 4 2 5 6 6 5 4 3 0 1 2 3 3 3 2 3 3 1 2 4 5 4 5 6 5 3 3 8 6 2 3 2 3 3 6 7 8 10 10 9 9 8 7 6 5 7
22 22 22 23 23 23 23 20 18 16 14 14 13 12 11 9 8 8 7 6 5 5 6 7 9 9 4 3 3 4 4 6 4 5 7 9 10 11 10 10 9 8 6 5 7 6 6 6 4 2 2 2 0 2 3 3 2 3 1 2 5 7 5 1 2 2 3 3 4 9 6 3 2 2 3 4 9 8 7 8 8 8 7 7 6 4 4 8
22 22 23 23 23 23 23 20 18 17 16 16 15 12 9 8 7 7 6 5 5 5 6 7 8 7 4 2 3 3 5 7 5 5 8 10 12 12 12 13 13 11 9 9 11 8 5 7 5 1 2 3 2 3 0 3 3 2 2 3 3 7 1 4 0 2 4 3 6 6 1 5 5 3 1 6 9 10 8 7 7 6 6 7 7 5 6 9
22 23 23 23 23 23 22 21 18 17 17 16 16 11 8 7 6 5 5 5 5 4 5 5 6 4 3 3 6 3 6 7 6 7 7 9 11 11 11 11 11 11 11 12 14 9 5 6 5 1 1 3 2 3 3 6 4 1 2 3 3 4 2 4 1 4 4 1 4 4 2 6 4 2 4 7 8 10 8 7 7 6 5 6 6 7 7 8
22 23 24 24 23 23 22 21 18 17 17 15 14 10 8 8 6 4 3 3 3 3 3 3 3 3 2 5 5 3 7 7 5 6 6 8 9 8 8 8 10 11 10 11 11 7 4 4 3 1 2 0 4 4 4 5 4 3 2 2 3 2 3 7 2 8 5 3 4 3 2 5 4 4 5 7 8 8 7 6 7 5 5 5 5 7 6 5
22 23 24 24 24 23 22 21 18 17 16 14 14 10 8 8 5 2 1 2 3 1 1 1 1 3 2 4 4 5 5 4 7 8 7 8 8 8 10 11 12 10 9 8 4 5 2 2 3 2 1 2 5 4 4 4 4 4 3 1 3 2 1 4 1 6 3 4 5 1 3 2 4 4 5 5 7 6 5 4 4 4 5 6 5 6 5 3
22 23 23 23 24 23 22 20 18 17 15 14 15 11 7 5 1 3 4 6 4 1 2 2 2 4 1 4 5 4 3 6 12 12 9 8 8 9 9 7 7 8 10 7 2 1 1 3 2 1 2 3 2 4 5 4 4 4 3 3 3 1 0 2 3 2 2 5 6 2 2 3 4 3 6 5 4 4 2 2 3 4 5 6 6 5 5 4
22 23 23 23 24 23 22 20 17 16 14 13 16 11 5 1 4 6 6 8 4 2 4 1 3 3 2 3 3 4 7 11 13 10 8 8 7 8 7 3 2 6 8 6 4 3 2 2 2 1 3 4 3 5 4 2 2 2 1 3 3 3 1 3 3 1 4 5 7 5 3 4 2 3 6 4 4 4 4 4 3 5 6 6 6 6 6 5
22 22 22 22 23 22 22 19 16 15 13 13 14 8 3 3 3 3 5 9 2 0 1 1 2 2 3 3 5 8 11 11 11 8 6 5 4 4 4 1 2 4 4 3 4 3 2 3 3 2 2 3 0 4 4 6 4 3 2 3 2 3 3 5 4 2 4 5 3 5 4 2 3 5 7 6 5 5 5 5 4 5 6 6 7 7 7 6
22 22 22 22 22 22 22 20 14 12 13 13 12 5 3 4 3 2 7 6 2 3 3 4 3 2 5 5 4 7 10 7 4 4 3 2 4 5 2 3 5 5 3 0 3 2 4 4 1 3 5 5 4 5 5 5 5 4 4 3 1 1 4 4 2 4 2 5 0 2 3 2 4 4 5 7 7 7 9 8 6 7 6 6 7 8 8 6
21 22 21 21 22 21 22 19 11 10 12 12 11 6 3 3 3 3 6 6 6 6 6 7 5 5 8 8 5 4 4 3 3 3 3 3 3 4 1 3 6 5 3 2 2 2 5 4 4 7 8 6 4 3 3 4 5 4 5 3 3 0 3 5 2 5 4 3 2 2 3 2 2 2 5 7 8 9 9 8 8 8 7 6 7 8 9 6
20 21 21 21 21 20 22 17 8 8 9 12 13 8 3 2 1 3 3 4 7 6 7 6 4 6 10 11 9 1 3 2 7 7 5 4 2 0 1 4 4 2 4 2 3 5 5 1 9 7 5 5 5 4 5 6 6 5 3 4 2 1 2 6 3 5 5 3 0 1 3 2 3 3 5 7 8 6 6 8 8 7 7 7 7 8 7 7
20 21 21 21 20 19 21 13 6 8 9 11 11 6 2 6 5 2 3 2 7 4 5 4 4 5 5 7 7 5 4 2 3 7 4 7 1 1 3 4 2 1 4 4 4 4 2 4 7 2 5 7 6 6 7 6 5 4 4 4 0 2 1 2 4 6 6 3 4 3 3 2 1 2 4 6 6 5 4 7 7 7 8 8 8 7 6 8
19 20 20 22 20 18 20 10 4 9 9 7 8 6 5 9 9 2 3 1 5 5 4 6 5 5 4 4 5 8 3 3 3 4 4 9 2 2 4 3 3 1 2 2 6 5 3 5 2 5 5 6 7 5 4 6 4 2 2 5 3 2 3 3 3 5 5 5 4 5 4 4 1 1 4 3 4 6 4 5 7 7 8 7 7 8 8 8
18 19 20 22 21 19 17 6 4 13 10 3 4 6 8 10 10 2 3 2 3 5 4 4 2 4 5 3 6 7 2 2 5 4 4 8 5 2 1 2 3 1 4 3 5 2 3 4 1 6 6 6 7 2 2 6 4 2 2 5 6 4 4 3 2 5 5 4 3 5 3 5 4 2 6 3 4 6 4 5 8 8 7 6 7 9 9 9
17 18 18 20 21 21 12 1 6 16 8 3 1 8 9 11 10 1 4 4 2 5 2 1 1 3 4 3 4 3 4 3 6 4 4 6 6 4 1 1 1 1 4 3 2 0 1 3 3 5 5 6 5 1 4 5 6 0 4 6 6 5 5 3 2 4 2 2 2 4 4 4 5 4 6 3 5 7 4 6 9 7 7 7 8 8 8 10
16 17 18 18 20 21 9 1 10 13 3 1 5 8 9 11 8 2 3 5 3 3 1 1 1 3 4 2 4 5 2 5 4 2 3 6 3 4 1 3 1 1 2 3 1 1 2 2 6 5 6 6 3 2 5 7 7 3 5 6 7 5 5 4 5 4 2 3 2 4 5 2 4 5 6 2 5 7 6 9 10 8 8 8 9 9 9 10
15 16 18 16 18 18 9 5 12 9 3 6 8 9 11 11 4 3 4 3 2 1 1 1 1 2 1 1 4 4 2 3 1 1 1 4 3 3 2 4 5 4 0 5 1 4 2 1 2 4 5 2 3 5 7 8 4 5 4 7 5 3 3 4 5 3 1 1 3 5 2 2 4 5 5 2 4 7 9 11 12 11 10 9 9 10 10 10
16 15 17 17 17 14 8 10 12 7 5 8 9 11 11 7 1 4 4 1 1 1 1 0 0 1 2 2 1 1 1 1 2 3 2 4 1 3 2 4 6 5 0 5 4 5 2 3 5 6 4 3 6 5 7 8 2 3 6 7 4 5 5 4 5 3 3 2 4 6 1 2 5 5 2 2 2 7 10 11 11 11 10 10 10 10 10 9
17 15 16 17 16 12 11 14 10 5 6 10 11 11 8 3 3 5 2 2 1 1 1 1 1 1 2 3 2 3 1 2 1 2 2 1 3 5 3 3 5 5 1 3 2 5 3 2 3 3 3 6 4 1 3 4 3 4 6 6 5 5 5 3 3 3 3 2 6 6 2 3 3 5 2 3 4 7 8 8 8 9 10 10 10 10 10 9
17 15 15 17 16 12 11 9 4 5 9 11 10 7 3 2 4 5 2 4 2 2 1 1 1 2 3 4 2 2 1 3 2 1 0 1 3 4 2 1 3 4 3 5 2 5 6 2 2 2 2 5 5 4 2 2 4 6 5 4 3 3 5 4 4 3 2 4 6 5 2 4 2 5 4 5 8 7 6 7 9 10 11 11 11 11 10 8
18 15 15 16 15 12 10 7 6 10 11 8 7 4 4 2 1 2 4 3 1 2 1 0 1 3 2 1 2 2 2 2 2 2 3 2 1 1 2 3 2 2 3 2 2 5 5 3 3 4 1 4 6 3 2 5 5 5 4 5 4 2 3 2 3 1 2 5 3 3 2 1 4 7 6 7 10 9 7 8 8 9 10 10 9 8 6 5
19 17 16 15 14 15 14 12 10 10 9 6 3 4 6 3 2 4 3 2 1 2 0 0 2 1 1 0 2 3 2 2 3 0 2 1 1 3 3 3 5 3 1 3 1 4 4 5 4 1 1 1 6 5 2 1 1 4 4 4 3 2 2 2 3 2 3 4 3 3 2 1 4 5 6 8 9 8 6 7 7 7 8 9 8 5 3 5
19 18 18 16 16 17 14 11 10 9 7 3 3 5 5 2 4 3 3 3 2 2 1 0 3 2 2 2 3 3 1 2 1 1 1 2 1 3 3 2 3 5 3 2 1 1 0 5 3 3 1 1 4 5 6 5 3 2 3 5 4 4 3 3 3 3 3 3 2 3 1 2 2 3 5 7 8 7 6 6 6 6 7 7 6 5 5 6
19 17 17 18 17 16 11 8 9 8 4 3 6 4 4 4 4 2 3 3 1 2 3 1 1 2 1 3 3 1 2 2 0 2 1 2 2 3 2 4 3 4 4 2 2 1 2 4 7 3 0 4 3 3 5 6 3 2 2 5 2 4 4 1 2 4 2 1 2 2 2 4 4 5 6 4 6 7 5 4 4 6 7 5 6 7 6 6
18 15 14 15 15 13 8 9 10 10 6 5 5 2 4 4 3 3 3 2 1 1 3 4 1 1 2 3 3 2 1 1 0 1 1 2 3 4 3 4 5 6 6 4 3 1 2 5 7 4 2 2 3 3 4 3 2 1 1 3 4 3 7 5 1 1 2 1 3 1 3 5 3 5 6 6 6 7 6 5 4 5 6 4 7 7 6 6
17 14 10 11 14 11 7 9 12 11 6 6 4 5 4 4 4 4 3 2 2 2 3 2 1 1 2 2 2 3 2 0 1 1 1 2 2 4 4 3 4 7 6 4 2 3 4 3 7 1 1 2 2 4 4 3 4 4 2 5 3 2 4 4 2 3 3 2 4 1 3 4 2 2 6 7 6 8 7 5 4 6 5 5 8 7 6 7
16 12 8 12 14 11 9 12 13 9 5 4 3 4 3 3 3 3 3 2 2 3 4 2 3 1 1 1 2 3 2 1 1 1 1 1 2 3 3 1 2 4 4 4 1 2 4 2 7 2 2 3 4 3 2 5 3 4 4 4 3 2 1 1 2 1 0 2 3 3 3 3 3 4 5 5 6 8 8 5 4 5 6 7 8 8 7 6
11 6 4 7 8 11 15 15 11 6 5 3 5 3 3 4 3 3 4 3 3 3 2 4 3 0 1 3 3 2 2 2 2 1 1 1 2 2 1 1 1 1 3 7 4 2 3 1 5 4 2 2 4 2 2 2 4 4 3 2 2 2 4 2 2 3 2 2 2 3 3 3 5 6 5 7 8 7 8 7 6 7 8 8 8 7 6 6
5 1 3 5 3 14 19 14 7 4 2 4 4 3 2 2 3 4 4 3 2 2 2 4 3 1 2 3 3 2 0 2 3 2 1 2 2 3 1 1 0 1 2 5 3 2 3 2 4 5 4 1 0 2 5 6 3 2 2 1 1 1 2 1 1 2 3 3 2 2 2 5 6 4 7 9 9 8 9 7 7 8 8 7 7 7 7 6
4 0 4 4 8 19 16 8 3 2 3 2 2 3 2 1 1 3 3 2 2 2 2 4 5 3 3 2 3 3 2 2 3 3 2 3 2 2 2 2 2 1 2 4 2 2 2 2 3 2 2 2 5 5 5 6 5 5 4 4 4 3 3 1 2 1 1 3 4 4 3 7 6 4 7 9 8 7 7 6 7 8 8 8 7 8 8 7
1 3 3 2 14 20 10 3 2 2 3 2 2 3 2 1 1 2 3 1 1 2 1 2 4 4 4 3 3 4 3 2 3 3 3 4 4 4 3 3 3 3 3 2 1 2 3 3 3 2 3 5 7 5 3 4 4 5 3 3 4 4 5 5 3 3 1 1 2 3 2 6 6 5 7 7 6 5 4 4 7 8 9 9 8 8 8 8
2 4 4 0 16 14 4 2 3 1 2 3 2 2 1 1 2 2 2 0 1 1 1 1 3 3 4 4 3 4 4 4 4 4 3 3 4 5 5 4 3 4 3 1 1 1 2 3 2 2 3 4 5 3 2 2 3 4 1 1 4 3 3 5 5 3 2 2 2 1 3 6 6 3 4 5 5 5 5 6 7 8 9 8 9 9 7 8
2 3 3 3 15 9 1 4 4 2 4 2 1 2 1 1 3 2 2 2 2 2 1 2 3 2 3 3 3 4 5 4 3 3 3 3 3 3 3 4 3 4 2 1 2 1 1 0 2 1 4 5 5 5 4 4 1 3 2 1 3 3 5 4 2 3 1 4 5 4 4 6 6 4 3 4 4 5 7 7 7 8 8 8 8 8 7 7
2 3 3 3 10 7 2 4 4 3 3 1 1 3 1 1 3 4 5 3 2 2 2 2 2 2 1 1 1 2 3 3 2 2 2 2 3 1 1 2 1 4 3 4 4 3 2 2 3 3 2 3 2 2 2 3 1 1 1 2 3 4 6 4 2 3 2 4 5 5 5 6 6 6 6 6 4 6 8 6 6 8 9 8 7 7 7 7
1 3 2 2 3 4 2 2 3 3 3 3 2 3 3 3 3 2 5 3 2 2 1 3 1 2 2 2 2 1 2 1 1 1 2 2 4 1 1 2 1 2 1 2 4 4 3 1 3 5 6 6 6 6 5 2 1 2 2 3 3 2 4 4 3 3 4 3 3 5 6 5 7 6 6 7 6 6 8 7 6 7 8 8 8 8 8 7
1 2 2 2 1 3 3 2 2 2 2 4 3 2 4 4 2 0 2 2 1 1 1 2 4 3 2 2 2 1 2 2 3 0 2 2 3 3 3 2 3 2 2 4 2 3 4 1 3 5 7 7 8 8 4 3 3 4 4 4 3 1 3 5 4 5 4 3 4 7 7 6 7 7 8 9 8 7 8 9 8 7 7 7 7 7 8 8
2 2 2 2 1 3 5 4 5 5 4 4 3 2 4 4 2 2 1 0 1 1 2 2 5 3 1 1 2 1 2 3 2 2 1 1 2 3 4 3 2 4 2 3 2 3 5 2 2 4 4 5 5 6 4 4 4 4 5 6 5 4 5 6 7 6 6 5 8 7 8 9 8 8 10 11 10 9 10 9 7 7 7 7 7 8 9 9
2 2 3 1 0 3 4 3 7 9 7 6 3 3 5 5 3 3 1 1 2 3 3 2 3 3 2 1 2 1 1 0 1 3 2 1 1 0 2 2 2 4 3 3 1 2 4 2 2 3 2 5 4 5 4 4 3 2 4 6 6 6 8 8 6 5 7 8 9 7 10 11 8 9 12 10 9 8 7 6 6 7 8 8 8 9 10 10
1 2 3 1 1 2 1 2 5 7 6 5 5 4 4 5 4 3 1 3 2 1 3 3 4 4 1 3 4 2 4 4 4 6 3 3 2 2 2 3 2 2 4 2 1 1 1 2 2 4 1 5 6 4 3 5 4 4 4 3 4 6 7 5 4 4 5 9 11 10 11 10 7 10 12 10 8 7 6 8 10 9 9 8 9 10 10 10
4 4 3 1 2 1 1 1 3 4 3 4 5 4 3 6 6 4 1 1 4 4 2 3 5 3 1 4 4 1 4 3 5 7 5 4 3 3 2 2 4 2 3 1 1 2 1 1 1 3 0 5 5 4 6 5 4 5 3 2 6 7 5 4 6 6 7 10 12 11 10 9 7 7 8 8 8 8 9 11 11 10 10 9 10 11 11 11
5 5 4 2 2 1 2 1 2 3 3 3 4 4 3 4 5 6 3 1 3 5 4 5 5 1 1 2 1 2 5 5 6 7 4 4 4 4 3 2 4 4 2 2 1 1 3 3 1 2 2 5 4 3 3 5 5 5 5 7 11 9 7 8 8 8 9 9 9 10 9 7 5 2 4 7 8 9 10 10 9 10 10 9 10 11 11 11
Wind_Direction
6 2 2 9 10 9 6 4 4 4 7 9 8 7 4 2 3 9 15 18 15 6 1 355 353 352 349 348 343 338 333 331 323 303 287 309 313 306 319 324 312 312 329 7 43 81 72 40 19 18 79 84 13 11 17 75 83 58 83 92 111 193 210 187 190 197 180 227 228 207 203 130 130 120 133 66 45 63 65 53 72 79 92 104 120 131 138 145
3 0 3 8 8 8 5 2 1 0 3 5 6 5 2 2 3 8 12 14 12 5 3 358 356 352 350 348 340 336 333 330 326 294 307 354 24 29 323 339 12 24 44 61 58 60 57 8 349 21 53 43 348 0 12 1 96 97 115 100 203 207 209 199 204 202 184 214 207 162 170 160 145 134 121 95 70 92 91 86 111 115 119 119 125 131 138 144
360 0 3 6 6 7 5 0 358 356 359 1 3 2 1 1 2 5 7 9 8 7 5 359 356 352 351 346 340 339 335 343 0 334 359 24 59 80 86 63 63 81 76 73 55 43 65 61 18 49 58 44 348 8 21 7 193 160 127 190 234 210 227 245 226 214 203 186 155 142 144 119 121 119 91 121 135 165 151 149 145 144 150 140 136 139 143 150
359 1 2 4 4 5 3 360 355 352 353 356 359 0 359 358 0 1 1 2 4 7 5 0 357 354 352 346 343 341 343 20 35 330 8 37 92 106 106 101 91 100 84 61 46 31 53 71 54 59 71 48 329 7 24 275 233 154 143 206 219 167 218 265 241 228 213 156 144 141 119 120 147 102 96 134 139 222 212 212 200 162 161 152 148 151 150 157
360 2 2 3 3 2 1 359 354 350 348 350 354 356 356 356 357 355 353 356 360 4 1 0 0 358 353 347 345 343 3 53 321 319 20 53 97 113 111 115 115 105 61 36 34 40 56 61 55 48 59 77 335 21 254 246 152 153 214 211 193 149 192 264 249 240 190 116 137 137 138 151 147 71 114 154 167 234 213 214 214 163 159 154 151 157 156 161
0 1 2 2 2 2 0 358 353 349 345 346 350 350 351 351 351 350 347 350 353 356 355 358 1 357 353 349 344 355 48 78 276 308 45 55 91 112 107 119 144 10 338 12 38 61 68 55 51 61 62 75 198 185 241 260 137 233 271 246 213 188 205 243 234 222 149 144 152 150 164 133 111 71 119 169 211 270 228 164 169 153 150 148 146 157 160 165
359 1 1 1 2 1 360 357 352 349 345 345 346 346 346 344 345 343 340 345 347 349 348 351 355 352 353 350 343 22 81 259 289 154 170 13 141 170 138 213 251 286 293 339 58 86 96 69 67 143 91 43 190 210 245 326 31 204 269 291 256 204 210 230 214 179 147 160 162 143 145 129 135 142 90 215 270 288 208 141 144 141 137 139 145 158 161 168
360 360 359 0 1 0 359 357 353 349 345 344 344 344 342 338 337 333 333 337 339 340 337 342 345 347 353 354 3 27 43 301 341 48 236 245 236 234 238 261 272 275 282 318 251 166 127 111 156 151 76 351 166 231 294 14 1 188 227 277 267 213 243 251 199 122 131 145 129 115 109 109 139 136 106 276 282 289 149 133 139 142 132 141 155 160 159 174
359 358 358 0 359 359 358 357 356 352 347 345 342 340 339 335 330 325 325 322 327 325 326 335 336 347 354 356 65 44 313 317 352 356 245 234 245 249 255 268 278 273 265 292 246 180 180 174 197 160 140 251 126 302 292 56 294 209 219 257 251 291 313 306 121 119 132 135 128 118 81 56 88 85 101 216 199 164 135 132 147 155 150 158 164 168 167 183
358 357 359 359 358 358 358 358 357 355 351 346 341 339 336 330 323 317 315 309 312 312 321 332 334 349 352 358 66 69 310 341 340 305 272 252 255 257 264 274 278 271 251 249 196 165 195 206 173 147 146 119 135 264 223 126 233 224 224 234 229 311 356 70 118 129 125 102 134 128 101 74 48 33 227 197 160 153 136 139 155 163 168 170 170 178 179 192
357 358 359 358 358 357 358 358 358 357 353 349 344 339 330 323 315 309 308 303 301 309 323 331 335 346 352 58 85 148 311 1 342 288 284 270 267 270 280 286 279 267 248 241 230 218 242 238 152 114 78 147 195 262 236 208 279 280 233 237 346 25 45 81 122 144 132 68 96 114 93 3 17 6 251 167 143 156 145 147 162 169 177 177 175 181 183 200
357 357 358 357 358 358 359 358 358 358 354 351 346 338 326 313 305 300 299 300 301 313 326 332 336 341 4 65 129 205 304 337 315 279 270 271 278 281 289 293 286 278 269 268 273 258 253 242 148 95 280 188 286 319 237 238 329 328 43 44 343 29 52 171 131 150 133 115 135 111 78 311 247 265 270 146 143 158 153 156 171 178 181 180 187 191 191 209
356 357 357 357 358 357 358 358 359 358 355 353 350 346 330 307 301 298 296 299 302 317 328 334 333 336 32 27 254 247 302 300 285 260 257 267 275 279 286 290 290 291 282 274 282 285 261 235 181 177 238 151 285 287 74 2 4 310 33 61 347 25 23 227 109 27 45 115 164 124 113 246 239 269 218 145 149 157 163 176 182 185 186 187 197 201 207 215
355 356 356 356 358 357 358 358 357 357 356 357 356 353 341 327 312 293 292 295 302 319 324 335 336 346 69 299 283 310 317 302 283 261 261 266 271 282 288 288 290 296 293 284 284 284 264 227 189 179 233 147 269 289 4 2 13 338 12 40 20 39 259 272 67 120 67 260 185 98 232 242 257 246 161 154 160 161 170 189 190 194 198 196 203 206 216 217
354 354 355 356 357 357 358 357 355 357 358 359 0 354 342 344 328 296 290 297 314 325 321 340 350 22 37 301 293 334 321 310 294 280 281 272 266 281 292 295 297 302 302 294 287 270 236 198 161 47 270 353 37 32 354 341 10 29 41 343 345 71 257 301 267 168 144 191 188 95 210 256 273 207 163 158 169 172 182 195 195 202 215 221 224 217 225 216
352 353 354 355 357 358 358 356 354 356 358 357 357 347 331 333 327 300 154 16 0 338 332 27 57 63 66 298 314 336 315 313 318 307 290 272 257 258 281 300 303 311 318 309 280 237 219 106 78 36 270 22 52 74 33 5 351 2 64 343 311 42 314 310 286 205 190 157 184 193 171 240 279 193 156 164 174 176 186 199 198 202 228 242 246 236 241 225
351 351 353 354 355 357 358 356 355 357 359 356 350 340 324 317 335 114 96 40 27 94 79 127 107 61 334 282 309 321 303 312 320 309 287 273 260 259 273 296 311 330 341 342 21 137 42 45 52 0 35 43 59 85 54 18 325 320 28 38 298 349 49 300 335 271 178 171 193 192 168 247 280 185 164 177 166 162 193 228 224 217 233 247 250 250 252 238
348 349 352 353 353 356 359 356 356 360 1 357 346 339 344 40 126 117 62 24 20 82 58 88 87 57 291 287 289 293 302 307 316 310 280 263 254 254 251 250 331 348 357 4 25 43 19 9 57 36 5 11 30 78 86 226 232 279 345 48 303 298 194 222 289 250 159 177 189 177 223 274 288 172 172 182 170 180 223 233 242 243 242 251 253 255 253 234
346 348 350 352 352 355 358 356 359 5 8 1 346 342 52 73 121 137 11 9 3 148 11 238 95 112 234 259 267 297 307 302 304 291 259 243 224 209 211 195 24 14 29 21 349 9 54 25 39 50 321 315 4 128 160 201 177 167 181 161 216 293 277 239 254 259 138 116 151 181 209 230 198 193 178 181 189 203 233 239 249 250 242 247 250 252 249 233
344 345 346 350 351 353 357 356 0 14 17 8 355 1 54 23 12 330 338 348 233 231 261 227 185 211 261 272 282 320 319 304 292 264 233 214 173 152 132 36 37 37 53 3 301 350 77 60 327 216 225 237 219 198 188 173 145 130 132 145 236 313 300 292 352 354 60 107 149 208 173 196 209 205 182 178 192 211 227 236 244 246 245 244 248 254 253 245
341 341 344 347 349 352 355 355 4 29 29 29 33 47 76 52 37 325 319 314 257 231 238 237 210 234 263 270 289 357 353 323 307 278 228 213 152 142 270 25 45 12 325 239 271 348 61 73 248 227 213 212 189 189 160 114 102 107 125 98 14 46 291 305 343 343 345 118 335 340 150 273 295 185 184 182 195 215 224 233 242 246 251 249 251 256 259 263
339 339 341 343 346 350 353 356 15 32 39 54 60 79 107 69 10 263 269 307 285 225 215 244 240 253 265 270 272 272 82 337 312 303 216 179 59 116 272 57 73 315 315 352 27 15 34 239 253 243 183 139 94 71 78 85 80 76 101 97 57 242 288 306 317 353 3 111 344 355 126 315 318 183 193 195 207 223 220 225 236 242 251 254 252 254 262 272
337 337 339 340 343 347 350 357 25 29 46 66 65 81 54 354 343 280 175 271 295 259 209 214 207 235 263 274 242 160 124 193 279 304 200 155 50 180 141 83 95 312 354 29 95 86 51 250 259 253 137 127 84 48 67 74 62 74 99 105 143 270 94 317 331 5 7 83 134 126 93 342 302 169 203 203 213 235 224 223 232 233 241 250 254 254 253 260
336 337 338 337 339 345 348 351 38 24 33 78 75 56 15 351 351 32 149 249 298 288 239 203 194 204 222 253 186 151 139 188 191 284 188 145 123 135 145 142 122 50 324 119 124 137 227 248 227 79 88 113 94 49 73 89 49 358 127 129 170 244 151 189 300 359 1 25 84 97 48 324 277 209 244 207 203 232 230 230 239 239 241 252 260 258 250 247
336 336 336 338 338 341 343 348 36 7 1 125 108 11 1 350 345 5 133 35 308 293 280 212 214 216 205 162 164 163 117 216 211 230 184 153 147 121 143 164 120 216 239 158 113 119 261 262 139 88 63 77 98 103 180 129 92 326 236 177 184 186 165 190 350 31 30 4 12 76 66 297 306 278 248 208 208 232 219 227 242 245 243 246 252 255 257 254
336 335 337 339 338 340 345 26 0 352 350 153 146 337 344 344 342 54 118 43 317 284 299 196 196 193 195 145 161 139 63 291 245 200 177 176 159 111 124 260 49 228 219 169 113 131 273 337 49 103 102 85 87 137 207 139 105 129 222 185 168 146 136 139 107 88 79 258 309 76 130 255 312 291 251 215 223 248 243 240 247 246 240 238 244 249 255 259
335 336 336 339 343 346 350 320 333 340 340 249 312 326 333 336 340 138 102 26 321 273 190 265 349 149 186 177 140 114 107 277 275 143 161 173 161 65 105 250 313 232 198 103 48 253 217 10 40 74 91 91 92 205 205 136 113 220 223 149 135 143 162 163 137 130 184 211 303 26 105 169 295 274 275 253 223 253 256 249 254 248 239 236 241 246 246 251
333 337 336 337 344 346 342 320 326 330 285 287 310 320 325 330 331 129 80 37 311 286 143 252 281 156 214 160 119 118 202 259 81 260 291 128 147 58 74 232 191 203 253 99 190 261 225 201 122 105 76 99 190 212 188 136 120 239 185 125 132 150 158 139 117 119 66 115 285 321 69 143 265 274 313 329 228 254 255 247 251 248 243 238 239 244 246 250
330 336 335 333 338 342 337 319 313 304 289 299 313 317 320 326 349 85 72 92 287 9 88 8 250 249 353 73 106 27 312 43 126 264 349 93 122 67 127 214 158 164 57 100 184 244 240 228 194 140 112 218 228 222 175 143 140 214 128 91 65 57 59 69 96 112 54 53 242 266 270 177 268 281 331 23 242 249 248 246 246 245 247 243 240 242 242 247
325 332 332 329 332 333 322 313 301 282 302 310 314 314 319 349 66 66 59 232 277 313 227 26 253 256 70 98 316 330 282 267 283 317 11 77 350 35 124 174 100 120 28 32 211 244 301 290 196 148 170 198 184 140 162 150 116 114 97 60 40 34 28 36 51 80 66 315 253 252 223 169 273 281 221 189 222 225 231 249 253 247 247 244 242 242 237 237
319 325 325 321 322 319 312 313 305 297 308 312 315 321 349 27 68 90 194 238 269 298 321 346 314 13 87 140 242 291 220 284 306 86 76 275 349 23 88 121 46 66 11 353 294 299 340 2 218 261 192 150 109 76 46 23 54 89 93 73 74 0 3 20 358 33 97 262 266 269 241 143 211 265 241 233 243 230 213 233 246 242 241 240 238 239 237 232
315 317 315 310 307 294 279 283 296 300 305 315 327 2 77 44 34 161 241 285 299 282 330 309 313 7 31 142 220 230 188 269 291 142 166 186 200 207 169 183 182 28 343 290 288 332 328 229 258 312 246 131 109 97 23 10 32 78 91 78 82 2 359 351 311 339 209 246 268 305 347 133 230 249 253 254 254 246 226 225 240 245 246 247 245 249 254 237
311 314 309 301 292 281 278 286 288 286 296 314 346 47 81 88 232 216 248 308 245 255 297 211 321 336 156 102 258 232 182 232 264 141 162 153 195 255 267 200 160 122 264 225 342 357 321 301 323 358 275 141 124 136 166 317 82 129 129 112 109 87 54 287 275 290 263 258 273 300 315 288 280 268 243 244 256 262 256 247 248 251 254 257 259 258 246 228
311 313 307 298 287 281 283 282 269 262 281 324 61 63 86 146 234 223 240 262 252 305 0 162 328 338 157 189 248 221 169 260 239 120 86 54 43 277 289 259 155 112 116 161 193 146 179 307 285 179 204 193 160 168 164 148 137 181 157 127 137 147 153 232 234 206 248 269 287 295 273 190 234 262 235 238 269 281 275 265 258 256 256 258 267 254 221 220
311 311 305 298 289 285 278 251 238 233 226 81 70 76 134 201 244 209 215 246 281 326 315 290 24 13 313 283 280 191 164 270 325 105 118 131 183 217 221 227 194 123 117 157 232 169 140 259 258 262 116 141 170 191 142 116 91 260 153 111 152 181 147 165 198 181 200 267 276 273 243 213 219 268 278 287 296 293 294 307 296 270 263 256 259 250 225 221
313 312 306 292 285 284 259 219 212 201 171 90 75 143 188 215 215 174 194 202 110 329 331 345 51 119 295 298 317 8 72 239 10 65 196 194 206 209 214 225 190 163 154 162 205 154 99 269 276 312 20 136 181 174 128 121 163 206 129 166 218 173 117 114 194 333 56 207 264 266 256 286 320 299 307 341 327 304 307 327 320 286 277 254 245 244 232 224
319 319 305 280 280 275 232 205 193 178 138 90 126 199 221 223 189 177 193 150 116 93 69 19 303 207 246 274 291 318 356 54 27 27 242 261 246 201 222 258 190 187 185 153 214 201 142 260 288 323 100 309 241 142 74 49 130 124 173 205 199 111 89 101 133 4 34 225 274 308 248 286 348 290 314 343 325 294 291 299 302 292 282 254 246 242 234 229
322 323 300 275 273 252 207 187 176 153 97 95 191 226 226 212 193 182 177 138 114 85 97 177 243 239 190 203 268 291 319 289 321 12 199 268 268 201 205 261 163 205 206 129 135 235 137 239 292 292 175 311 346 97 46 354 49 114 171 173 115 123 160 75 134 130 76 231 282 308 285 268 202 226 291 302 273 270 280 286 278 259 242 242 248 244 236 230
318 326 295 279 263 216 187 174 161 114 73 160 211 243 219 218 243 210 179 137 115 115 137 210 225 319 185 181 212 271 312 238 199 106 168 203 248 234 168 177 162 224 182 135 146 210 114 155 277 294 248 284 6 75 197 285 8 44 93 87 44 141 162 165 152 158 181 205 255 302 321 273 227 217 218 238 244 246 261 275 269 245 230 229 240 245 240 225
312 326 267 297 218 179 171 157 130 87 114 188 203 229 234 232 261 248 210 172 138 148 177 200 185 186 228 209 210 227 256 199 170 145 206 204 236 280 305 158 113 26 112 109 127 168 83 124 241 295 311 257 274 220 194 187 157 83 110 184 317 91 126 173 136 124 148 162 184 231 281 262 248 211 195 225 240 229 229 240 251 254 247 237 234 238 239 228
323 236 274 308 161 163 155 135 118 144 171 200 202 218 263 241 240 292 266 205 199 215 175 174 177 184 202 213 241 224 163 174 175 159 215 216 200 254 268 194 178 61 65 62 71 160 124 145 190 282 322 211 237 242 197 182 171 153 173 196 180 142 125 147 278 295 131 152 173 176 236 263 254 204 200 221 229 230 232 234 247 260 260 253 242 231 228 227
330 196 294 322 165 162 140 126 207 136 146 199 214 203 226 184 153 281 278 157 197 240 132 170 190 187 194 197 210 198 160 172 198 174 201 215 193 197 226 207 167 118 97 65 312 195 147 116 138 225 236 222 246 253 176 175 155 130 158 185 153 137 124 140 213 253 209 161 167 144 212 268 259 209 209 228 237 254 268 251 256 268 266 262 255 242 231 228
183 207 324 176 174 168 115 186 229 17 190 226 248 208 202 150 161 254 268 229 226 222 70 214 195 187 218 207 179 186 188 190 191 184 198 216 216 218 222 207 150 91 81 53 319 201 127 99 133 257 297 298 296 322 53 90 102 114 225 148 139 153 141 153 178 179 171 185 165 164 250 269 274 245 222 244 262 275 264 236 242 265 274 270 263 255 244 237
216 228 324 181 181 185 227 199 198 224 226 247 286 226 289 193 180 199 236 243 233 171 130 240 212 205 230 192 152 187 201 189 190 210 199 186 226 230 206 205 167 109 110 196 158 167 226 146 116 69 334 330 335 349 353 344 38 172 227 218 167 135 107 119 126 104 224 221 174 180 243 254 272 299 300 284 283 276 261 234 220 243 263 268 267 265 256 249
294 230 293 214 189 196 227 189 163 183 209 162 204 226 265 249 214 198 195 223 240 171 182 263 224 180 201 159 129 194 197 191 213 217 177 193 256 247 98 278 186 135 202 211 156 142 180 178 135 136 204 237 253 257 262 283 266 203 218 211 194 142 128 149 127 109 238 238 172 179 237 259 286 315 316 303 297 282 270 252 224 231 245 256 266 271 263 251
293 242 278 301 215 203 217 194 137 155 175 149 217 237 179 197 268 215 179 203 246 178 205 296 315 79 47 44 38 301 258 281 339 175 169 221 264 268 40 328 36 123 182 133 117 104 99 175 180 163 188 203 204 220 222 178 180 246 253 220 195 145 130 122 108 160 200 196 193 218 227 255 284 289 286 282 273 266 270 269 258 245 240 242 248 258 262 256
271 253 198 176 252 220 224 247 139 150 196 172 190 232 183 190 274 278 162 182 190 152 111 3 34 52 18 25 58 292 290 5 23 228 195 217 257 291 330 29 55 16 43 90 83 91 104 237 225 172 202 213 206 224 218 145 198 221 219 228 217 139 121 134 180 207 168 139 258 246 214 224 253 248 248 258 259 258 260 259 258 256 248 240 238 247 259 263
236 269 210 182 229 205 210 219 179 186 212 185 182 215 185 175 168 173 202 128 105 86 102 32 20 29 313 303 113 192 320 11 355 273 233 259 287 326 342 3 13 346 27 75 12 94 125 233 231 166 238 249 224 236 211 174 223 199 179 213 214 172 177 202 222 204 156 195 254 242 208 218 236 241 241 243 242 240 243 248 255 261 260 251 237 236 243 249
243 273 283 312 222 208 211 191 178 195 205 190 202 217 182 176 182 196 224 56 27 7 86 106 321 326 308 285 126 152 282 81 286 275 220 203 251 39 349 303 304 349 42 87 23 97 133 225 210 156 297 295 268 258 218 199 238 223 206 221 205 196 213 227 237 203 186 229 255 248 237 237 233 241 246 242 237 240 253 279 283 265 254 245 234 232 234 238
247 274 286 345 335 233 217 105 159 192 207 199 218 228 183 190 204 202 193 113 123 347 61 118 256 275 168 134 128 180 231 201 243 268 216 184 252 215 206 224 202 0 17 85 100 24 122 236 199 125 27 292 290 296 247 212 214 233 258 255 223 238 251 256 256 218 213 250 257 250 256 259 245 243 251 257 261 266 276 276 269 258 249 245 239 237 236 236
260 286 283 281 273 228 149 95 128 163 204 211 213 215 194 207 198 160 154 116 138 146 132 168 226 263 79 101 110 220 266 246 246 252 212 187 229 215 209 227 175 124 3 70 120 52 109 201 61 84 84 271 275 275 267 268 252 235 239 236 234 240 240 233 231 212 214 248 262 262 261 264 256 241 249 261 262 261 260 258 259 259 250 238 236 241 239 236
262 277 265 229 259 266 142 135 116 160 211 215 200 199 186 196 176 142 147 348 96 135 164 187 191 182 23 19 56 258 278 274 251 247 216 198 231 220 208 211 173 156 136 142 130 97 139 143 138 136 217 262 258 248 280 315 300 256 214 205 222 227 227 240 248 236 224 231 254 262 256 262 276 243 235 256 251 245 247 247 248 254 252 239 230 235 238 236